{"data":{"norad_id":53993,"intl_designator":"2022-125AF","name":"STARLINK-5121","alt_names":[],"object_type":"PAYLOAD","status":"ACTIVE","operator":null,"country":"US","launch_date":"2022-10-05","launch_site_code":"AFWTR","launch_vehicle":null,"mission":null,"orbit_class":"UNKNOWN","rcs_meters":null,"size_class":null,"mass_kg":null,"dimensions":null,"purposes":["comms"],"wikipedia_slug":null,"has_3d_model":false,"image_url":null,"decayed_at":null,"tle_current":{"epoch":"2026-09-20T03:41:54.696192Z","epoch_age_seconds":116185,"freshness":"FRESH","line1":"1 53993U 22125AF  26263.15410528  .00000625  00000+0  57386-4 0  9991","line2":"2 53993  53.1603  55.2287 0001274  96.0807 264.0330 15.08834271218886","mean_motion":15.08834271,"eccentricity":0.0001274,"inclination_deg":53.1603,"raan_deg":55.2287,"arg_perigee_deg":96.0807,"mean_anomaly_deg":264.033,"bstar":5.7386e-5,"rev_number":21888,"period_min":95.437917051395,"perigee_km":538.87956008809,"apogee_km":540.64224047309,"semimajor_km":6917.8979002806,"source":"CELESTRAK","updated_at":"2026-09-21T09:00:33.044967Z"}}}